Time,TemperatureF,DewpointF,PressureIn,WindDirection,WindDirectionDegrees,WindSpeedMPH,WindSpeedGustMPH,Humidity,HourlyPrecipIn,Conditions,Clouds,dailyrainin,SoftwareType,DateUTC
2013-09-10 14:05:00,90.9,0.0,30.20,WNW,293,0.0,0.0,0,0.00,,,0.00,Weather View 32 v70,2013-09-10 18:05:00,
2013-09-10 14:06:00,90.9,0.0,30.21,North,0,0.0,1.0,0,0.00,,,0.00,Weather View 32 v70,2013-09-10 18:06:00,
2013-09-10 14:09:00,90.1,0.0,30.24,WNW,293,0.0,2.0,0,0.00,,,0.00,Weather View 32 v70,2013-09-10 18:09:00,
2013-09-10 14:14:00,90.1,0.0,30.19,WNW,293,2.0,5.0,0,0.00,,,0.00,Weather View 32 v70,2013-09-10 18:14:00,
2013-09-10 14:19:00,90.7,0.0,30.20,North,0,4.0,5.0,0,0.00,,,0.00,Weather View 32 v70,2013-09-10 18:19:00,
2013-09-10 14:24:00,91.0,0.0,30.18,WNW,293,0.0,5.0,0,0.00,,,0.00,Weather View 32 v70,2013-09-10 18:24:00,
2013-09-10 14:29:00,90.7,0.0,30.23,North,0,0.0,5.0,0,0.00,,,0.00,Weather View 32 v70,2013-09-10 18:29:00,
2013-09-10 14:34:00,90.9,0.0,30.17,North,0,4.0,5.0,0,0.00,,,0.00,Weather View 32 v70,2013-09-10 18:34:00,
2013-09-10 14:39:00,91.9,0.0,30.16,North,0,5.0,5.0,0,0.00,,,0.00,Weather View 32 v70,2013-09-10 18:39:00,
2013-09-10 14:44:00,92.1,0.0,30.16,North,0,2.0,7.0,0,0.00,,,0.00,Weather View 32 v70,2013-09-10 18:44:00,
2013-09-10 14:49:00,91.6,0.0,30.16,West,270,0.0,7.0,0,0.00,,,0.00,Weather View 32 v70,2013-09-10 18:49:00,
2013-09-10 14:54:00,91.9,0.0,30.16,West,270,0.0,7.0,0,0.00,,,0.00,Weather View 32 v70,2013-09-10 18:54:00,
2013-09-10 14:59:00,91.8,0.0,30.21,WNW,293,0.0,7.0,0,0.00,,,0.00,Weather View 32 v70,2013-09-10 18:59:00,
2013-09-10 15:04:00,91.0,0.0,30.14,NW,315,0.0,7.0,0,0.00,,,0.00,Weather View 32 v70,2013-09-10 19:04:00,
2013-09-10 15:09:00,91.4,0.0,30.17,West,270,1.0,7.0,0,0.00,,,0.00,Weather View 32 v70,2013-09-10 19:09:00,
2013-09-10 15:14:00,91.0,0.0,30.21,SE,135,5.0,7.0,0,0.00,,,0.00,Weather View 32 v70,2013-09-10 19:14:00,
2013-09-10 15:19:00,91.0,0.0,30.23,WNW,293,0.0,7.0,0,0.00,,,0.00,Weather View 32 v70,2013-09-10 19:19:00,
2013-09-10 15:24:00,90.7,0.0,30.17,WNW,293,0.0,7.0,0,0.00,,,0.00,Weather View 32 v70,2013-09-10 19:24:00,
2013-09-10 15:29:00,90.3,0.0,30.17,WNW,293,0.0,7.0,0,0.00,,,0.00,Weather View 32 v70,2013-09-10 19:29:00,
2013-09-10 15:34:00,90.0,0.0,30.13,West,270,0.0,7.0,0,0.00,,,0.00,Weather View 32 v70,2013-09-10 19:34:00,
2013-09-10 15:39:00,90.5,0.0,30.16,North,0,0.0,7.0,0,0.00,,,0.00,Weather View 32 v70,2013-09-10 19:39:00,
2013-09-10 15:44:00,89.8,0.0,30.15,West,270,0.0,6.0,0,0.00,,,0.00,Weather View 32 v70,2013-09-10 19:44:00,
2013-09-10 15:49:00,90.3,0.0,30.15,WNW,293,0.0,6.0,0,0.00,,,0.00,Weather View 32 v70,2013-09-10 19:49:00,
2013-09-10 15:54:00,90.1,0.0,30.21,WNW,293,0.0,6.0,0,0.00,,,0.00,Weather View 32 v70,2013-09-10 19:54:00,
2013-09-10 15:59:00,90.1,0.0,30.22,North,0,0.0,6.0,0,0.00,,,0.00,Weather View 32 v70,2013-09-10 19:59:00,
2013-09-10 16:04:00,90.3,0.0,30.13,West,270,0.0,6.0,0,0.00,,,0.00,Weather View 32 v70,2013-09-10 20:04:00,
2013-09-10 16:09:00,89.6,0.0,30.15,West,270,0.0,5.0,0,0.00,,,0.00,Weather View 32 v70,2013-09-10 20:09:00,
2013-09-10 16:14:00,89.6,0.0,30.15,WNW,293,0.0,5.0,0,0.00,,,0.00,Weather View 32 v70,2013-09-10 20:14:00,
2013-09-10 16:19:00,89.8,0.0,30.14,North,0,5.0,5.0,0,0.00,,,0.00,Weather View 32 v70,2013-09-10 20:19:00,
2013-09-10 16:24:00,89.8,0.0,30.14,North,0,4.0,8.0,0,0.00,,,0.00,Weather View 32 v70,2013-09-10 20:24:00,
2013-09-10 16:29:00,89.4,0.0,30.12,WNW,293,0.0,8.0,0,0.00,,,0.00,Weather View 32 v70,2013-09-10 20:29:00,
2013-09-10 16:34:00,89.4,0.0,30.15,WNW,293,0.0,8.0,0,0.00,,,0.00,Weather View 32 v70,2013-09-10 20:34:00,
2013-09-10 16:39:00,89.2,0.0,30.13,West,270,0.0,8.0,0,0.00,,,0.00,Weather View 32 v70,2013-09-10 20:39:00,
2013-09-10 16:44:00,89.1,0.0,30.11,West,270,0.0,8.0,0,0.00,,,0.00,Weather View 32 v70,2013-09-10 20:44:00,
2013-09-10 16:49:00,88.2,0.0,30.20,WNW,293,0.0,8.0,0,0.00,,,0.00,Weather View 32 v70,2013-09-10 20:49:00,
2013-09-10 16:54:00,88.2,0.0,30.13,West,270,0.0,8.0,0,0.00,,,0.00,Weather View 32 v70,2013-09-10 20:54:00,
2013-09-10 16:59:00,88.0,0.0,30.16,WNW,293,0.0,8.0,0,0.00,,,0.00,Weather View 32 v70,2013-09-10 20:59:00,
2013-09-10 17:04:00,88.2,0.0,30.13,West,270,0.0,8.0,0,0.00,,,0.00,Weather View 32 v70,2013-09-10 21:04:00,
2013-09-10 17:05:00,88.0,0.0,30.12,West,270,0.0,8.0,0,0.00,,,0.00,Weather View 32 v70,2013-09-10 21:05:00,